KB1JDX Weather Reports


Display with metric or nautical units.
time (UTC)temp
F
wind
direction
speed
MPH
gust
MPH
rain 1hr
in
rain 24hr
in
rain mn
in
humidity
%
barometer
mb
20180623081737 58 218 0.0 0.0 0.00 0.00 0.00 78 1015.2
20180623075735 58 218 0.0 0.0 0.00 0.00 0.00 78 1015.2
20180623073734 57 218 0.0 0.0 0.00 0.00 0.00 78 1015.6
20180623071735 57 218 0.0 0.0 0.00 0.00 0.00 78 1016.0
20180623065734 57 217 0.0 0.0 0.00 0.00 0.00 77 1016.0
20180623063735 57 218 0.0 0.0 0.00 0.00 0.00 78 1016.2
20180623061735 58 218 0.0 0.0 0.00 0.00 0.00 78 1016.4
20180623055734 58 217 0.0 0.0 0.00 0.00 0.00 77 1017.1
20180623053735 59 217 0.0 0.0 0.00 0.00 0.00 74 1017.0
20180623051733 59 218 0.0 0.0 0.00 0.00 0.00 72 1017.0
20180623045733 59 217 0.0 0.0 0.00 0.00 0.00 71 1017.2
20180623043734 60 217 0.0 0.0 0.00 0.00 0.00 69 1017.4
20180623035735 60 219 0.0 0.0 0.00 0.00 0.00 70 1017.6
20180623033735 60 220 0.0 0.0 0.00 0.00 0.00 71 1017.5
20180623025735 60 219 0.0 0.0 0.00 0.00 0.00 69 1017.6
20180623023734 61 219 0.0 0.0 0.00 0.00 0.00 72 1017.6
20180623021734 61 219 0.0 0.0 0.00 0.00 0.00 67 1017.8
20180623015734 62 219 0.0 0.0 0.00 0.00 0.00 65 1017.8
20180623013736 62 217 0.0 0.0 0.00 0.00 0.00 65 1017.6
20180623011734 63 217 0.0 0.0 0.00 0.00 0.00 67 1017.5
20180623005736 63 218 0.0 7.0 0.00 0.00 0.00 69 1017.3
20180623003735 65 217 0.0 7.0 0.00 0.00 0.00 68 1017.2
20180623001734 65 217 0.0 7.0 0.00 0.00 0.00 70 1017.2
20180622235735 66 232 2.0 8.0 0.00 0.00 0.00 71 1017.3
20180622233734 67 233 0.0 11.0 0.00 0.00 0.00 72 1017.1
20180622231735 67 210 0.0 11.0 0.00 0.00 0.00 74 1017.0
20180622225735 69 203 8.0 10.0 0.00 0.00 0.00 72 1016.8
20180622221735 71 218 0.0 9.0 0.00 0.00 0.00 65 1016.6
20180622215735 72 217 2.0 9.0 0.00 0.00 0.00 58 1016.6
20180622213735 73 192 0.0 12.0 0.00 0.00 0.00 51 1016.6
20180622211734 74 188 4.0 12.0 0.00 0.00 0.00 52 1016.6
20180622205734 74 236 0.0 10.0 0.00 0.00 0.00 53 1016.4
20180622203735 74 192 3.0 13.0 0.00 0.00 0.00 57 1016.5
20180622201735 74 205 6.0 13.0 0.00 0.00 0.00 61 1016.3
20180622195736 74 207 4.0 11.0 0.00 0.00 0.00 61 1016.4
20180622193736 77 213 4.0 10.0 0.00 0.00 0.00 56 1016.3
20180622191736 76 218 2.0 10.0 0.00 0.00 0.00 53 1016.3
20180622185736 77 200 0.0 7.0 0.00 0.00 0.00 53 1016.3
20180622183736 77 183 0.0 7.0 0.00 0.00 0.00 53 1016.4
20180622181737 79 267 4.0 7.0 0.00 0.00 0.00 51 1016.2
20180622175735 78 219 0.0 8.0 0.00 0.00 0.00 50 1016.4
20180622173735 79 302 0.0 8.0 0.00 0.00 0.00 51 1016.4
20180622171734 78 23 0.0 8.0 0.00 0.00 0.00 50 1016.4
20180622165737 78 191 5.0 6.0 0.00 0.00 0.00 50 1016.6
20180622163734 77 322 1.0 8.0 0.00 0.00 0.00 53 1016.7
20180622161734 75 338 1.0 8.0 0.00 0.00 0.00 55 1016.9
20180622155735 75 325 0.0 8.0 0.00 0.00 0.00 57 1016.9
20180622153734 75 219 4.0 7.0 0.00 0.00 0.00 55 1016.8
20180622151735 75 224 0.0 7.0 0.00 0.00 0.00 54 1016.8
20180622145734 74 192 0.0 8.0 0.00 0.00 0.00 58 1016.7
20180622143736 75 23 4.0 8.0 0.00 0.00 0.00 55 1016.8
20180622135736 72 290 0.0 7.0 0.00 0.00 0.00 65 1016.7
20180622131737 69 315 0.0 6.0 0.00 0.00 0.00 66 1016.9
20180622125736 68 69 0.0 5.0 0.00 0.00 0.00 66 1016.9
20180622123736 66 305 0.0 5.0 0.00 0.00 0.00 71 1016.7
20180622121735 64 286 0.0 5.0 0.00 0.00 0.00 71 1016.5
20180622115735 62 355 1.0 4.0 0.00 0.00 0.00 73 1016.5
20180622113932 60 317 1.0 2.0 0.00 0.00 0.00 76 1016.4
20180622113737 60 317 0.0 2.0 0.00 0.00 0.00 76 1016.4
20180622111736 59 317 0.0 2.0 0.00 0.00 0.00 76 1016.0
20180622105736 58 288 0.0 2.0 0.00 0.00 0.00 78 1015.9
20180622103933 57 275 0.0 0.0 0.00 0.00 0.00 78 1015.8
20180622101735 56 269 0.0 0.0 0.00 0.00 0.00 78 1015.3
20180622095735 56 236 0.0 0.0 0.00 0.00 0.00 78 1015.2
20180622093932 56 236 0.0 0.0 0.00 0.00 0.00 78 1015.0
20180622093735 56 236 0.0 0.0 0.00 0.00 0.00 78 1014.9
20180622091736 56 236 0.0 0.0 0.00 0.00 0.00 78 1014.7
20180622085737 57 224 0.0 0.0 0.00 0.00 0.00 78 1014.3
20180622083932 57 224 0.0 0.0 0.00 0.00 0.00 78 1014.2
20180622083735 57 224 0.0 0.0 0.00 0.00 0.00 78 1014.2